Flag for Canada Weather past 2 weeks in Yellowknife, Northwest Territories, Canada

Now
57 °F

Sprinkles. Mostly cloudy.


Feels Like: 53 °F
Forecast: 53 / 61 °F
Wind: 20 mph from Southeast

Location: Yellowknife

Current Time: Aug 30, 2015 at 12:40:29 PM

Latest Report: Aug 30, 2015 at 12:00 PM


Visibility: 15 mi

Pressure: 29.30 "Hg

Humidity: 94%

Dew point: 55 °F

Location of YellowknifeLocation

Historic Weather in Yellowknife — Graph

°F

Yellowknife temperature yesterday

Maximum temperature yesterday: 63 °F (at 5:00 PM)
Minimum temperature yesterday: 43 °F (at 3:00 AM)
Average temperature yesterday: 51 °F

Past Weeks' High & Low Weather Summary

 TemperatureHumidityPressure
High68 °F (Aug 16, 4:00 PM)100% (Aug 16, 12:00 AM)30.13 "Hg (Aug 16, 12:00 AM)
Low37 °F (Aug 23, 3:00 AM)40% (Aug 16, 1:00 PM)29.29 "Hg (Aug 19, 1:00 PM)
Average55 °F76%29.80 "Hg
* Reported Aug 15 11:00 AM — Aug 30 11:00 AM, Yellowknife, Weather by CustomWeather, © 2015

Note: Actual official high and low records may vary slightly from our data, if they occured in-between our weather recording intervals... More about our weather records

Advertising

Yellowknife weather history for previous 24 hours

 ConditionsComfort  
Time TempWeatherWind HumidityBarometerVisibility
11:00 AM
Sun, Aug 30
57 °FSprinkles. Cloudy.14 mph88%29.32 "Hg15 mi
10:00 AM59 °FCloudy.16 mph77%29.34 "Hg15 mi
9:00 AM59 °FLight rain. Cloudy.17 mph72%29.35 "Hg15 mi
8:00 AM57 °FMostly cloudy.21 mph72%29.36 "Hg15 mi
7:00 AM55 °FOvercast.17 mph77%29.38 "Hg15 mi
6:00 AM55 °FPassing clouds.15 mph77%29.40 "Hg15 mi
5:00 AM54 °FPassing clouds.15 mph82%29.43 "Hg15 mi
4:00 AM54 °FPartly cloudy.10 mph77%29.46 "Hg15 mi
3:00 AM54 °FPartly cloudy.14 mph77%29.49 "Hg15 mi
2:00 AM54 °FPartly cloudy.14 mph77%29.53 "Hg15 mi
1:00 AM52 °FPassing clouds.13 mph77%29.56 "Hg15 mi
12:00 AM54 °FPassing clouds.13 mph72%29.58 "Hg15 mi
11:00 PM
Sat, Aug 29
55 °FPassing clouds.14 mph67%29.60 "Hg15 mi
10:00 PM55 °FPassing clouds.8 mph72%29.62 "Hg15 mi
9:00 PM55 °FPassing clouds.3 mph72%29.63 "Hg15 mi
8:00 PM59 °FPassing clouds.5 mph63%29.64 "Hg15 mi
7:00 PM63 °FPassing clouds.7 mph52%29.65 "Hg15 mi
6:00 PM63 °FPassing clouds.2 mph49%29.67 "Hg15 mi
5:00 PM63 °FPassing clouds.6 mph49%29.67 "Hg15 mi
4:00 PM61 °FPassing clouds.8 mph52%29.70 "Hg15 mi
3:00 PM59 °FPassing clouds.5 mph51%29.72 "Hg15 mi
2:00 PM57 °FPassing clouds.3 mph59%29.72 "Hg15 mi
1:00 PM54 °FPassing clouds.3 mph67%29.73 "Hg15 mi
12:00 PM52 °FPassing clouds.5 mph67%29.75 "Hg15 mi
Weather by CustomWeather, © 2015

See weather overviewHow to use our weather pages